This is the latest recevied weather packets stored in our database for station/object KD9JB-1. If no packets are shown the sender has not sent any weather packets the latest 1 day(s).
| Time | Temp. | Humidity | Pressure | Rain* | Wind** | Luminosity | Snow |
|---|---|---|---|---|---|---|---|
| 1778004695 | 16.11° C | 92% | 1007.9 hPa | 1.02 mm | 0.89 m/s, 15° | - | - |
| 1778004395 | 16.11° C | 92% | 1008 hPa | 1.02 mm | 0.89 m/s, 344° | - | - |
| 1778004095 | 16.11° C | 92% | 1007.8 hPa | 1.02 mm | 0.89 m/s, 197° | - | - |
| 1778003795 | 16.11° C | 92% | 1007.9 hPa | 1.02 mm | 0.89 m/s, 316° | - | - |
| 1778003495 | 16.11° C | 92% | 1007.9 hPa | 1.02 mm | 0.89 m/s, 206° | - | - |
| 1778003195 | 16.11° C | 92% | 1007.9 hPa | 1.02 mm | 0.89 m/s, 336° | - | - |
| 1778002895 | 16.11° C | 92% | 1008.1 hPa | 1.27 mm | 0.89 m/s, 252° | - | - |
| 1778002595 | 16.11° C | 92% | 1007.9 hPa | 1.27 mm | 0.89 m/s, 1° | - | - |
| 1778002295 | 16.11° C | 92% | 1007.9 hPa | 1.02 mm | 0.89 m/s, 298° | - | - |
| 1778001995 | 16.11° C | 92% | 1007.9 hPa | 1.27 mm | 0.89 m/s, 331° | - | - |
| 1778001695 | 16.11° C | 92% | 1008 hPa | 1.02 mm | 0.89 m/s, 306° | - | - |
| 1778001395 | 16.11° C | 92% | 1008.1 hPa | 1.27 mm | 0.89 m/s, 340° | - | - |
| 1778001095 | 16.11° C | 92% | 1008.2 hPa | 1.02 mm | 0.89 m/s, 142° | - | - |
| 1778000795 | 16.11° C | 92% | 1008.1 hPa | 1.02 mm | 0.89 m/s, 117° | - | - |
| 1778000495 | 16.11° C | 92% | 1008.2 hPa | 1.27 mm | 0.89 m/s, 178° | - | - |
| 1778000195 | 16.11° C | 92% | 1008.2 hPa | 2.03 mm | 1.34 m/s, 152° | - | - |
| 1777999895 | 15.56° C | 92% | 1008.1 hPa | 2.29 mm | 1.34 m/s, 161° | - | - |
| 1777999595 | 15.56° C | 92% | 1008 hPa | 2.79 mm | 0.89 m/s, 131° | - | - |
| 1777999295 | 15.56° C | 92% | 1008 hPa | 3.3 mm | 0.89 m/s, 135° | - | - |
| 1777998995 | 15.56° C | 92% | 1008 hPa | 3.81 mm | 0.89 m/s, 139° | - | - |
| 1777998696 | 15.56° C | 92% | 1008 hPa | 4.83 mm | 0.89 m/s, 178° | - | - |
| 1777998395 | 15.56° C | 91% | 1008.4 hPa | 5.84 mm | 0.45 m/s, 124° | - | - |
| 1777998096 | 15° C | 91% | 1008.5 hPa | 5.84 mm | 0.45 m/s, 286° | - | - |
| 1777997796 | 15° C | 91% | 1008.6 hPa | 5.59 mm | 0.89 m/s, 56° | - | - |
| 1777997496 | 15° C | 90% | 1008.8 hPa | 5.59 mm | 0.89 m/s, 1° | - | - |
* Rain latest hour (hover to see other rain measurements)
** Current wind speed in m/s (hover to see current wind gust speed)